This is the latest recevied weather packets stored in our database for station/object JH5EWP-13. If no packets are shown the sender has not sent any weather packets the latest 1 day(s).
| Time | Temp. | Humidity | Pressure | Rain* | Wind** | Luminosity | Snow |
|---|---|---|---|---|---|---|---|
| 1836274574 | 30.56° C | 55% | 999.6 hPa | 0 mm | 0 m/s | - | - |
| 1778024026 | 18.89° C | 42% | 1010.5 hPa | 0 mm | 0.45 m/s, 118° | - | - |
| 1778023128 | 17.78° C | 45% | 1010.3 hPa | 0 mm | 0.89 m/s, 122° | - | - |
| 1778022525 | 17.22° C | 52% | 1010.5 hPa | 0 mm | 0.89 m/s, 113° | - | - |
| 1778021625 | 17.22° C | 52% | 1010.5 hPa | 0 mm | 0.45 m/s, 119° | - | - |
| 1778020725 | 16.67° C | 55% | 1010.6 hPa | 0 mm | 0.45 m/s, 118° | - | - |
| 1778019826 | 15.56° C | 56% | 1010.5 hPa | 0 mm | 0.45 m/s, 102° | - | - |
| 1778018925 | 15.56° C | 59% | 1010.5 hPa | 0 mm | 0.45 m/s, 99° | - | - |
| 1778018024 | 14.44° C | 60% | 1010.4 hPa | 0 mm | 0.89 m/s, 114° | - | - |
| 1778017124 | 13.89° C | 61% | 1010.2 hPa | 0 mm | 1.34 m/s, 87° | - | - |
| 1778016224 | 13.33° C | 63% | 1010.3 hPa | 0 mm | 0.89 m/s, 88° | - | - |
| 1778015324 | 12.78° C | 64% | 1010.3 hPa | 0 mm | 0.45 m/s, 109° | - | - |
| 1778014426 | 12.22° C | 70% | 1010.3 hPa | 0 mm | 0.45 m/s, 124° | - | - |
| 1778013526 | 11.67° C | 69% | 1010.2 hPa | 0 mm | 0.45 m/s, 111° | - | - |
| 1778012626 | 11.67° C | 69% | 1010.3 hPa | 0 mm | 0.45 m/s, 106° | - | - |
| 1778011726 | 11.67° C | 68% | 1009.9 hPa | 0 mm | 0.45 m/s, 127° | - | - |
| 1778010825 | 11.67° C | 68% | 1009.8 hPa | 0 mm | 0.45 m/s, 114° | - | - |
| 1778009925 | 11.67° C | 67% | 1009.6 hPa | 0 mm | 0.45 m/s, 105° | - | - |
| 1778009025 | 11.67° C | 65% | 1009.9 hPa | 0 mm | 0 m/s | - | - |
| 1778008125 | 11.67° C | 64% | 1009.5 hPa | 0 mm | 0 m/s | - | - |
| 1778007225 | 12.22° C | 63% | 1009.6 hPa | 0 mm | 0.45 m/s, 100° | - | - |
| 1778006325 | 12.78° C | 60% | 1009.4 hPa | 0 mm | 0.45 m/s, 100° | - | - |
| 1778005425 | 12.78° C | 60% | 1009.5 hPa | 0 mm | 0.45 m/s, 96° | - | - |
| 1778004525 | 12.78° C | 58% | 1010.1 hPa | 0 mm | 0.89 m/s, 91° | - | - |
| 1778003625 | 12.78° C | 56% | 1009.9 hPa | 0 mm | 0.45 m/s, 104° | - | - |
* Rain latest hour (hover to see other rain measurements)
** Current wind speed in m/s (hover to see current wind gust speed)